| time (UTC) | temp F | wind direction | speed knots | gust knots | rain 1hr in | rain 24hr in | rain mn in | humidity % | barometer mb |
| 20260502203005 | 46 | 360 | 0.0 | 10.4 | 0.00 | 0.00 | 0.00 | 46 | 1015.8 |
| 20260502201505 | 46 | 360 | 0.0 | 10.4 | 0.00 | 0.00 | 0.00 | 46 | 1015.8 |
| 20260502200019 | 46 | 0 | 2.6 | 10.4 | 0.00 | 0.00 | 0.00 | 46 | 1015.1 |
| 20260502200005 | 46 | 360 | 0.0 | 7.0 | 0.00 | 0.00 | 0.00 | 44 | 1016.3 |
| 20260502194505 | 46 | 360 | 0.0 | 7.0 | 0.00 | 0.00 | 0.00 | 44 | 1016.3 |
| 20260502193006 | 46 | 360 | 0.0 | 7.0 | 0.00 | 0.00 | 0.00 | 44 | 1016.3 |
| 20260502191506 | 46 | 360 | 0.0 | 7.0 | 0.00 | 0.00 | 0.00 | 44 | 1016.3 |
| 20260502190019 | 46 | 0 | 1.7 | 7.0 | 0.00 | 0.00 | 0.00 | 44 | 1015.6 |
| 20260502190005 | 45 | 360 | 0.0 | 7.0 | 0.00 | 0.00 | 0.00 | 46 | 1016.6 |
| 20260502184505 | 45 | 360 | 0.0 | 7.0 | 0.00 | 0.00 | 0.00 | 46 | 1016.6 |
| 20260502183005 | 45 | 360 | 0.0 | 7.0 | 0.00 | 0.00 | 0.00 | 46 | 1016.6 |
| 20260502181505 | 45 | 360 | 0.0 | 7.0 | 0.00 | 0.00 | 0.00 | 46 | 1016.6 |
| 20260502163005 | 43 | 360 | 0.0 | 5.2 | 0.00 | 0.00 | 0.00 | 48 | 1017.3 |
| 20260502161505 | 43 | 360 | 0.0 | 5.2 | 0.00 | 0.00 | 0.00 | 48 | 1017.3 |
| 20260502151505 | 42 | 360 | 0.0 | 7.0 | 0.00 | 0.00 | 0.00 | 50 | 1017.2 |
| 20260502123006 | 33 | 0.0 | 2.6 | 0.00 | 0.00 | 0.00 | 79 | 1017.1 | |
| 20260502121506 | 33 | 0.0 | 2.6 | 0.00 | 0.00 | 0.00 | 79 | 1017.1 | |
| 20260502114505 | 31 | 0.0 | 0.0 | 0.00 | 0.00 | 0.00 | 85 | 1016.8 | |
| 20260502113005 | 31 | 0.0 | 0.0 | 0.00 | 0.00 | 0.00 | 85 | 1016.8 | |
| 20260502111505 | 31 | 0.0 | 0.0 | 0.00 | 0.00 | 0.00 | 85 | 1016.8 | |
| 20260502110021 | 31 | 0.0 | 0.0 | 0.00 | 0.00 | 0.00 | 85 | 1015.7 | |
| 20260502103005 | 33 | 0.0 | 0.0 | 0.00 | 0.00 | 0.00 | 81 | 1016.6 | |
| 20260502101506 | 33 | 0.0 | 0.0 | 0.00 | 0.00 | 0.00 | 81 | 1016.6 | |
| 20260502091505 | 36 | 0.0 | 0.0 | 0.00 | 0.00 | 0.00 | 76 | 1016.1 | |
| 20260502071505 | 40 | 0.0 | 1.7 | 0.00 | 0.00 | 0.00 | 66 | 1015.8 | |
| 20260502070019 | 40 | 0.0 | 1.7 | 0.00 | 0.00 | 0.00 | 66 | 1015.1 | |
| 20260502070005 | 40 | 0.0 | 3.5 | 0.00 | 0.00 | 0.00 | 63 | 1016.1 | |
| 20260502064505 | 40 | 0.0 | 3.5 | 0.00 | 0.00 | 0.00 | 63 | 1016.1 | |
| 20260502063005 | 40 | 0.0 | 3.5 | 0.00 | 0.00 | 0.00 | 63 | 1016.1 | |
| 20260502061505 | 40 | 0.0 | 3.5 | 0.00 | 0.00 | 0.00 | 63 | 1016.1 | |
| 20260502060019 | 40 | 0.0 | 3.5 | 0.00 | 0.00 | 0.00 | 63 | 1015.5 | |
| 20260502060005 | 41 | 0.0 | 3.5 | 0.00 | 0.00 | 0.00 | 64 | 1016.0 | |
| 20260502054505 | 41 | 0.0 | 3.5 | 0.00 | 0.00 | 0.00 | 64 | 1016.0 | |
| 20260502053006 | 41 | 0.0 | 3.5 | 0.00 | 0.00 | 0.00 | 64 | 1016.0 | |
| 20260502051506 | 41 | 0.0 | 3.5 | 0.00 | 0.00 | 0.00 | 64 | 1016.0 | |
| 20260502050019 | 41 | 0.0 | 3.5 | 0.00 | 0.00 | 0.00 | 64 | 1015.4 | |
| 20260502050005 | 41 | 360 | 0.0 | 3.5 | 0.00 | 0.00 | 0.00 | 65 | 1015.5 |
| 20260502044505 | 41 | 360 | 0.0 | 3.5 | 0.00 | 0.00 | 0.00 | 65 | 1015.5 |
| 20260502043005 | 41 | 360 | 0.0 | 3.5 | 0.00 | 0.00 | 0.00 | 65 | 1015.5 |
| 20260502041505 | 41 | 360 | 0.0 | 3.5 | 0.00 | 0.00 | 0.00 | 65 | 1015.5 |
| 20260502040019 | 41 | 0 | 0.9 | 3.5 | 0.00 | 0.00 | 0.00 | 65 | 1014.8 |
| 20260502040005 | 41 | 0.0 | 2.6 | 0.00 | 0.00 | 0.00 | 72 | 1015.2 | |
| 20260502034505 | 41 | 0.0 | 2.6 | 0.00 | 0.00 | 0.00 | 72 | 1015.2 | |
| 20260502033005 | 41 | 0.0 | 2.6 | 0.00 | 0.00 | 0.00 | 72 | 1015.2 | |
| 20260502031506 | 41 | 0.0 | 2.6 | 0.00 | 0.00 | 0.00 | 72 | 1015.2 | |
| 20260502030020 | 41 | 0.0 | 2.6 | 0.00 | 0.00 | 0.00 | 72 | 1014.5 | |
| 20260502030006 | 42 | 0.0 | 4.3 | 0.00 | 0.00 | 0.00 | 70 | 1015.0 | |
| 20260502024506 | 42 | 0.0 | 4.3 | 0.00 | 0.00 | 0.00 | 70 | 1015.0 | |
| 20260502023005 | 42 | 0.0 | 4.3 | 0.00 | 0.00 | 0.00 | 70 | 1015.0 | |
| 20260502021505 | 42 | 0.0 | 4.3 | 0.00 | 0.00 | 0.00 | 70 | 1015.0 | |
| 20260502020020 | 43 | 0.0 | 4.3 | 0.00 | 0.00 | 0.00 | 70 | 1014.2 | |
| 20260502020005 | 43 | 360 | 0.0 | 4.3 | 0.00 | 0.00 | 0.00 | 66 | 1014.5 |
| 20260502014505 | 43 | 360 | 0.0 | 4.3 | 0.00 | 0.00 | 0.00 | 66 | 1014.5 |
| 20260502013005 | 43 | 360 | 0.0 | 4.3 | 0.00 | 0.00 | 0.00 | 66 | 1014.5 |
| 20260502011505 | 43 | 360 | 0.0 | 4.3 | 0.00 | 0.00 | 0.00 | 66 | 1014.5 |
| 20260502010020 | 43 | 0 | 0.9 | 4.3 | 0.00 | 0.00 | 0.00 | 66 | 1013.8 |
| 20260502010006 | 44 | 360 | 0.0 | 5.2 | 0.00 | 0.00 | 0.00 | 67 | 1014.1 |
| 20260502004506 | 44 | 360 | 0.0 | 5.2 | 0.00 | 0.00 | 0.00 | 67 | 1014.1 |
| 20260502003006 | 44 | 360 | 0.0 | 5.2 | 0.00 | 0.00 | 0.00 | 67 | 1014.1 |
| 20260502001505 | 44 | 360 | 0.0 | 5.2 | 0.00 | 0.00 | 0.00 | 67 | 1014.1 |
| 20260502000020 | 44 | 0 | 0.9 | 5.2 | 0.00 | 0.00 | 0.00 | 67 | 1013.3 |
| 20260502000005 | 45 | 360 | 0.0 | 7.0 | 0.00 | 0.00 | 0.00 | 65 | 1013.8 |
| 20260501234505 | 45 | 360 | 0.0 | 7.0 | 0.00 | 0.00 | 0.00 | 65 | 1013.8 |
| 20260501233005 | 45 | 360 | 0.0 | 7.0 | 0.00 | 0.00 | 0.00 | 65 | 1013.8 |
| 20260501231505 | 45 | 360 | 0.0 | 7.0 | 0.00 | 0.00 | 0.00 | 65 | 1013.8 |
| 20260501230020 | 45 | 0 | 1.7 | 7.0 | 0.00 | 0.00 | 0.00 | 65 | 1013.1 |
| 20260501230005 | 46 | 360 | 0.0 | 7.8 | 0.00 | 0.00 | 0.00 | 64 | 1013.4 |
| 20260501224506 | 46 | 360 | 0.0 | 7.8 | 0.00 | 0.00 | 0.00 | 64 | 1013.4 |
| 20260501223006 | 46 | 360 | 0.0 | 7.8 | 0.00 | 0.00 | 0.00 | 64 | 1013.4 |
| 20260501221506 | 46 | 360 | 0.0 | 7.8 | 0.00 | 0.00 | 0.00 | 64 | 1013.4 |
| 20260501220020 | 46 | 0 | 1.7 | 7.8 | 0.00 | 0.00 | 0.00 | 64 | 1012.8 |
| 20260501220005 | 47 | 360 | 0.0 | 5.2 | 0.00 | 0.00 | 0.00 | 60 | 1013.2 |
| 20260501214505 | 47 | 360 | 0.0 | 5.2 | 0.00 | 0.00 | 0.00 | 60 | 1013.2 |
| 20260501213005 | 47 | 360 | 0.0 | 5.2 | 0.00 | 0.00 | 0.00 | 60 | 1013.2 |
| 20260501211505 | 47 | 360 | 0.0 | 5.2 | 0.00 | 0.00 | 0.00 | 60 | 1013.2 |
| 20260501210120 | 47 | 0 | 1.7 | 5.2 | 0.00 | 0.00 | 0.00 | 60 | 1012.6 |
| 20260501210005 | 48 | 360 | 0.0 | 5.2 | 0.00 | 0.00 | 0.00 | 58 | 1012.9 |
| 20260501204505 | 48 | 360 | 0.0 | 5.2 | 0.00 | 0.00 | 0.00 | 58 | 1012.9 |